User: anonymous   Login
Location: Corralito
(14.1667°N, 87.1833°W)
Time: 12:33:20
(UTC+00:00)
Language:

Cosmos 2142 Rocket - Orbit

View from above orbital plane
View from above orbital plane
View from above satellite
View from above satellite

Ground track
Ground track

The orbit data is extracted from the following two-line orbital elements,

1 21231U 91029B   20218.62381110 +.00000011 +00000-0 -37872-5 0  9990
2 21231 082.9540 340.1454 0033923 269.3992 100.5761 13.75816956471025
Epoch (UTC): 05 August 2020 14:58:17
Eccentricity: 0.0033923
inclination: 82.9540°
perigee height: 954 km
apogee height: 1004 km
right ascension of ascending node: 340.1454°
argument of perigee: 269.3992°
revolutions per day: 13.75816956
mean anomaly at epoch: 100.5761°
orbit number at epoch: 47102

The dashed part of the orbit path shows where the satellite is in the earth's shadow,  

DLR